This demonstration page uses our WeatherBlox Daily Observations layout. Learn more.

Hourly Observations for February 22, 2019

Temp ( °F °C ) Dew Point ( °F °C ) Humidity (%) Winds ( mph kmh ) Pressure ( in mb ) Visibility ( mi km ) Precip ( " mm )
12:54 am 00:54 Mostly Cloudy 27 -2.8 18 -7.8 69 69 E 5 7 30.29 1026 9 14.48406 0 0
1:54 am 01:54 Mostly Cloudy 25 -3.9 17 -8.3 72 72 E 7 11 30.3 1026 8 12.87472 0 0
2:54 am 02:54 Partly Cloudy 25 -3.9 17 -8.3 72 72 ENE 7 11 30.3 1026 9 14.48406 0 0
3:54 am 03:54 Clear 20 -6.7 14 -10 78 78 ENE 5 7 30.28 1026 8 12.87472 0 0
4:54 am 04:54 Clear 22 -5.6 16 -8.9 78 78 ENE 6 9 30.29 1026 8 12.87472 0 0
5:54 am 05:54 Clear 17 -8.3 13 -10.6 84 84 NNE 5 7 30.31 1026 8 12.87472 0 0
6:54 am 06:54 Clear 15 -9.4 12 -11.1 88 88 N 3 6 30.32 1027 7 11.26538 0 0
7:54 am 07:54 Sunny with Mist and Fog 14 -10 11 -11.7 88 88 NNE 6 9 30.32 1027 5 8.0467 0 0
8:54 am 08:54 Sunny 22 -5.6 14 -10 71 71 NE 5 7 30.3 1026 7 11.26538 0 0
9:54 am 09:54 Sunny 29 -1.7 17 -8.3 61 61 ESE 9 15 30.29 1026 9 14.48406 0 0
10:54 am 10:54 Mostly Sunny 31 -0.6 17 -8.3 56 56 ESE 18 30 30.28 1025 10 16.0934 0 0
11:54 am 11:54 Mostly Sunny 32 0 19 -7.2 59 59 ESE 12 19 30.26 1025 10 16.0934 0 0
12:54 pm 12:54 Sunny 33 0.6 20 -6.7 58 58 ESE 13 20 30.21 1023 10 16.0934 0 0
1:54 pm 13:54 Cloudy 34 1.1 20 -6.7 56 56 E 8 13 30.17 1022 9 14.48406 0 0
2:54 pm 14:54 Mostly Cloudy 33 0.6 20 -6.7 58 58 E 9 15 30.16 1021 9 14.48406 0 0
3:54 pm 15:54 Cloudy 33 0.6 21 -6.1 61 61 ESE 13 20 30.14 1021 10 16.0934 0 0
4:54 pm 16:54 Cloudy 33 0.6 22 -5.6 64 64 E 9 15 30.13 1020 9 14.48406 0 0
5:03 pm 17:03 Cloudy 33 0.6 22 -5.6 64 64 E 8 13 30.14 1021 9 14.48406 0 0
5:54 pm 17:54 Cloudy 33 0.6 24 -4.4 70 70 ESE 10 17 30.11 1020 8 12.87472 0 0
6:54 pm 18:54 Cloudy with Light Rain 33 0.6 24 -4.4 70 70 E 12 19 30.08 1019 9 14.48406 0 0.0254
7:40 pm 19:40 Cloudy with Light Rain 33 0.6 26 -3.3 75 75 ESE 15 24 30.11 1020 8 12.87472 0 0.0254
7:54 pm 19:54 Cloudy with Light Freezing Rain 33 0.6 27 -2.8 78 78 ESE 15 24 30.1 1019 4 6.43736 0 0.0254
8:00 pm 20:00 Cloudy with Freezing Rain 32 0 27 -2.8 82 82 ESE 13 20 30.12 1020 3 4.82802 0.01 0.254
8:17 pm 20:17 Cloudy with Light Freezing Rain 32 0 28 -2.2 85 85 SE 13 20 30.11 1020 4 6.43736 0.02 0.508
8:37 pm 20:37 Cloudy with Mist and Fog 32 0 29 -1.7 88 88 ESE 13 20 30.08 1019 4 6.43736 0.03 0.762
8:54 pm 20:54 Cloudy with Mist and Fog 32 0 29 -1.7 88 88 SE 8 13 30.06 1018 5 8.0467 0.03 0.762
9:19 pm 21:19 Cloudy with Mist and Fog 32 0 29 -1.7 88 88 SE 8 13 30.08 1019 3 4.82802 0 0
9:29 pm 21:29 Cloudy with Mist and Fog 32 0 30 -1.1 92 92 ESE 7 11 30.08 1019 2.5 4.02335 0 0
9:39 pm 21:39 Cloudy with Mist and Fog 32 0 30 -1.1 92 92 SE 7 11 30.08 1019 4 6.43736 0 0
9:54 pm 21:54 Cloudy with Mist and Fog 33 0.6 30 -1.1 89 89 SE 6 9 30.05 1018 3 4.82802 0 0
10:02 pm 22:02 Cloudy with Mist and Fog 33 0.6 31 -0.6 92 92 ESE 5 7 30.08 1019 2 3.21868 0 0
10:16 pm 22:16 Cloudy with Mist and Fog 33 0.6 31 -0.6 92 92 ESE 5 7 30.08 1019 1.75 2.816345 0 0
10:39 pm 22:39 Cloudy with Light Freezing Rain 33 0.6 31 -0.6 92 92 E 3 6 30.07 1018 2 3.21868 0 0.0254
10:49 pm 22:49 Cloudy with Mist and Fog 34 1 30 -1 87 87 E 3 6 30.06 1018 1.75 2.816345 0 0.0254
10:50 pm 22:50 Cloudy with Mist and Fog 33 0.6 31 -0.6 92 92 E 3 6 30.04 1017 1.75 2.816345 0 0.0254
11:32 pm 23:32 Cloudy with Light Freezing Rain 33 0.6 31 -0.6 92 92 E 5 7 30.05 1017 2 3.21868 0.01 0.254
11:42 pm 23:42 Cloudy with Light Freezing Rain 33 0.6 31 -0.6 92 92 ESE 7 11 30.05 1017 2 3.21868 0.01 0.254
11:46 pm 23:46 Cloudy with Mist and Fog 33 0.6 31 -0.6 92 92 ESE 7 11 30.05 1017 1.75 2.816345 0.01 0.254
11:54 pm 23:54 Cloudy with Mist and Fog 33 0.6 31 -0.6 92 92 ESE 7 11 30.02 1017 1.75 2.816345 0.01 0.254

Powered by AerisWeather